Regional Weather Roundup
Issued by NWS New Orleans/Baton Rouge, LA

Home | Current Version | Previous Version | Text Only | Print | Product List | Glossary On
Versions: 1 2 3 4 5 6 7 8 9 10 11 12 13 14 15 16 17 18 19 20 21 22 23 24 25 26 27 28
000
ASUS44 KLIX 290611
RWRLIX
NEW ORLEANS REGIONAL WEATHER ROUNDUP
NATIONAL WEATHER SERVICE NEW ORLEANS LA
100 AM CDT FRI JUL 29 2016

NOTE: "FAIR" INDICATES FEW OR NO CLOUDS BELOW 12,000 FEET WITH NO
      SIGNIFICANT WEATHER AND/OR OBSTRUCTIONS TO VISIBILITY.
      SKY/WX - SKY CONDITION AND SIGNIFICANT WEATHER.
      TMP - AIR TEMPERATURE.     DP    - DEWPOINT TEMPERATURE.
      RH  - RELATIVE HUMIDITY.   PRES  - PRESSURE.
      HI  - HEAT INDEX.          WCI   - WIND CHILL INDEX.

*  THESE STATIONS ARE NOT NWS OR FAA STATIONS AND ARE NOT UNDER
   NWS QUALITY CONTROL.

LAZ038-040-048-061>063-065>067-069-290700-
SOUTHEAST LOUISIANA

CITY           SKY/WX    TMP DP  RH WIND       PRES   REMARKS
N.O. AUDUBON     N/A     83  72  71 MISG        N/A
6HR MIN TEMP:  81; 6HR MAX TEMP:  85;

N.O. INTL ARPT PTCLDY    82  72  71 CALM      30.02S
6HR MIN TEMP:  82; 6HR MAX TEMP:  86;

N.O. LAKEFRONT PTCLDY    80  73  79 E5        30.02F
6HR MIN TEMP:  80; 6HR MAX TEMP:  83;

N.O. DOWNTOWN*   N/A     83  74  74 CALM      30.03S
6HR MIN TEMP:  83; 6HR MAX TEMP:  87;

RESERVE*         N/A     77  75  93 CALM      30.02S
6HR MIN TEMP:  76; 6HR MAX TEMP:  83;

SLIDELL        CLEAR     74  73  97 CALM      30.02S
6HR MIN TEMP:  74; 6HR MAX TEMP:  81;

BATON ROUGE    CLEAR     74  71  91 CALM      30.03S
6HR MIN TEMP:  73; 6HR MAX TEMP:  80;

BOOTHVILLE     PTCLDY    82  76  81 SE5       30.03F
6HR MIN TEMP:  79; 6HR MAX TEMP:  88; 6HR PCP:  0.09;

BELLE CHASSE   PTCLDY    76  74  93 CALM      30.02F
6HR MIN TEMP:  75; 6HR MAX TEMP:  84;

BOGALUSA*        N/A     74  71  89 CALM      30.05R
6HR MIN TEMP:  74; 6HR MAX TEMP:  79;

GALLIANO*      PTCLDY    72  72 100 CALM      30.02F
6HR MIN TEMP:  72; 6HR MAX TEMP:  87;

NEW ROADS*       N/A     73  73  99 CALM      30.03F
6HR MIN TEMP:  72; 6HR MAX TEMP:  79;

GONZALES*        N/A     76  75  99 CALM      30.02R
6HR MIN TEMP:  75; 6HR MAX TEMP:  83; 6HR PCP:  0.01;

HAMMOND*       PTCLDY    73  70  88 CALM      30.03S
HOUMA*         MOCLDY    76  75  96 CALM      30.02S
6HR MIN TEMP:  75; 6HR MAX TEMP:  85;

PORT FOURCHON* CLEAR     84  75  74 S6        30.02F

$$

MSZ070-080>082-290700-
SOUTHERN MISSISSIPPI

CITY           SKY/WX    TMP DP  RH WIND       PRES   REMARKS
MCCOMB         FOG       72  70  93 CALM      30.04S VSB 1/4
6HR MIN TEMP:  72; 6HR MAX TEMP:  77;

GULFPORT       PTCLDY    76  73  91 CALM      30.02F
6HR MIN TEMP:  76; 6HR MAX TEMP:  86;

BILOXI         MOCLDY    79  74  83 SE2       30.01F
6HR MIN TEMP:  78; 6HR MAX TEMP:  86;

PASCAGOULA     CLOUDY    76  76 100 CALM      30.03S
6HR MIN TEMP:  76; 6HR MAX TEMP:  85;


$$

COASTAL OBSERVATIONS
LAKE AND NEARSHORE STATIONS

STATION/POSITION TIME  TEMP    WIND        PRES    WAVE
                       AIR SEA DIR/SP/G            HT/PER
                 (UTC) (F)     (DEG/KT/KT) (MB)    (FT/S)
PASCAGOULA       0500   85     210/  6/  8 1016.4
WAVELAND YACHT   0500   80 88  100/  3/  4 1016.9
GRAND ISLE       0500   85 88  170/  4/  6 1017.0
SOUTHWEST PASS   0500          190/  3/  6   N/A
NEW CANAL        0500   81 86   CALM  /  2 1015.9
SHELL BEACH      0500   82 86  120/  5/  5 1017.0

OFFSHORE STATIONS

STATION/POSITION TIME  TEMP    WIND        PRES    WAVE
                       AIR SEA DIR/SP/G            HT/PER
                 (UTC) (F)     (DEG/KT/KT) (MB)    (FT/S)
64 S DAUPHIN ISL 0500   85 88  160/  8/ 10 1016.9

$$





USA.gov is the U.S. government's official web portal to all federal, state and local government web resources and services.